Wind_Speed
23 22 22 22 21 20 19 19 18 16 12 9 8 9 9 9 9 8 7 8 8 8 9 10 10 11 10 10 10 10 11 12 12 13 13 14 14 14 14 14 14 15 15 16 16 16 17 17 17 17 17 17 18 18 17 17 18 18 19 20 21 20 20 21 21 21 21 22 22 22 22 22 23 23 22 23 23 23 24 26 28 29 28 28 29 28 28 28
22 22 22 21 18 18 18 17 15 13 11 9 9 9 9 9 8 8 8 9 9 9 10 10 10 10 10 10 10 10 11 11 11 11 12 12 13 13 13 14 14 15 15 16 16 17 18 18 17 17 18 18 18 19 18 18 18 19 19 20 20 20 20 20 20 20 20 21 21 21 21 21 22 22 22 22 23 23 25 27 28 28 28 28 29 29 29 29
22 21 21 20 18 18 17 14 13 12 11 10 10 10 9 9 9 9 9 9 9 10 10 10 10 10 10 9 9 10 10 9 9 10 10 11 12 13 13 13 14 15 15 16 16 17 18 19 19 18 18 18 18 19 19 18 19 19 20 20 20 20 20 21 21 21 21 21 21 22 22 22 23 24 24 25 25 26 28 30 29 29 30 31 31 32 32 32
22 20 19 20 18 17 16 14 13 12 12 12 11 10 10 9 9 9 9 9 9 10 10 9 10 10 9 8 8 8 8 8 8 10 11 12 13 13 13 13 14 15 15 16 16 17 18 19 19 19 19 18 18 18 18 18 19 19 20 20 20 21 21 22 22 23 23 23 24 24 25 26 27 27 28 28 28 30 32 32 31 32 33 33 34 34 35 35
22 20 20 22 20 16 15 15 14 13 13 12 11 11 10 9 9 9 9 9 9 9 9 9 9 8 7 7 6 7 7 8 9 11 11 12 12 12 13 13 14 14 15 16 17 17 17 18 19 19 18 17 17 17 18 18 19 20 21 21 22 23 23 24 25 25 26 26 27 27 28 29 29 29 30 31 32 33 33 33 33 34 35 35 36 36 37 37
22 21 23 24 20 16 16 15 14 14 12 11 11 11 9 8 9 9 9 9 9 9 8 7 6 5 5 5 6 7 7 8 10 11 11 11 12 12 13 13 14 14 15 16 16 16 16 17 17 18 18 17 17 17 18 19 20 21 22 23 24 25 25 26 27 28 28 28 29 29 30 31 31 31 32 33 34 34 33 33 34 35 35 36 36 37 37 38
22 23 24 24 20 16 16 15 14 14 12 12 11 10 9 9 9 9 9 8 8 6 5 4 4 4 5 5 6 7 8 9 10 11 10 11 12 13 13 14 14 14 15 15 15 15 16 16 16 17 18 18 19 19 20 21 22 23 24 25 25 26 27 28 28 28 29 29 29 30 31 32 31 32 32 33 33 33 33 33 32 33 33 33 34 34 34 35
20 21 21 20 18 16 15 14 13 13 12 12 12 10 8 8 8 8 7 6 5 3 3 3 4 5 5 6 7 7 8 9 10 10 11 11 12 13 14 14 14 14 14 14 15 15 15 16 17 17 19 19 20 21 22 23 24 25 25 26 26 27 27 28 28 29 29 29 30 30 31 30 29 28 28 27 27 26 26 25 25 25 25 26 26 26 27 27
16 15 13 13 13 13 13 12 11 11 12 12 10 9 8 8 7 6 5 3 3 3 3 4 4 5 6 7 7 8 8 9 10 11 11 11 11 12 13 13 14 14 14 15 15 15 16 17 18 19 20 21 22 22 23 24 25 26 26 26 27 27 27 27 27 27 26 26 25 25 25 24 22 20 19 19 19 19 19 19 20 20 20 21 21 21 22 22
14 13 11 10 10 11 12 11 11 11 12 10 9 8 8 7 6 5 4 3 3 4 4 5 5 6 6 7 7 8 8 9 10 11 11 12 12 12 13 13 14 14 15 15 16 16 17 18 19 20 21 21 22 23 24 24 25 25 25 25 24 24 23 22 21 20 18 18 17 18 19 19 18 17 17 17 17 18 19 20 21 21 21 21 21 22 23 23
14 13 12 10 10 12 12 11 11 10 10 9 9 9 8 7 5 4 4 3 4 5 5 6 6 6 6 7 7 8 8 9 10 10 10 11 12 12 12 13 14 15 16 16 17 17 18 19 20 20 21 21 22 22 22 22 22 21 20 20 18 17 16 15 15 15 15 15 15 17 20 20 19 19 20 20 21 22 23 24 25 25 26 26 26 26 27 27
13 13 12 11 12 13 12 11 10 10 10 10 9 8 7 6 4 4 4 4 5 6 6 6 6 6 6 7 7 8 8 9 9 9 10 11 11 12 13 14 15 16 16 17 17 18 19 19 20 20 20 20 20 20 19 18 17 16 15 14 13 13 14 14 15 16 17 17 17 19 22 23 22 22 23 24 25 27 28 29 29 29 30 30 30 31 31 31
13 13 13 12 13 13 12 11 10 10 10 9 8 7 6 5 4 4 4 5 5 5 5 5 6 6 6 7 7 8 8 8 9 9 10 11 11 12 13 15 16 17 17 17 18 18 19 19 19 19 18 18 17 16 15 14 13 13 12 13 13 14 15 16 17 18 19 20 20 22 24 26 27 27 27 28 29 30 31 32 32 32 32 33 33 33 34 34
14 13 13 13 13 12 11 11 11 10 10 8 7 6 5 4 4 4 4 5 5 5 5 6 6 6 7 7 7 7 8 8 9 9 10 12 12 13 14 16 17 17 17 18 18 18 18 18 17 17 16 16 15 14 13 12 12 13 13 14 16 17 18 19 21 22 23 24 24 25 26 27 28 28 29 29 30 30 31 31 31 32 32 32 33 33 34 34
14 13 13 13 12 12 11 11 11 10 9 8 6 5 4 3 3 3 3 4 4 5 6 6 7 7 7 7 7 7 8 8 9 10 11 12 13 14 16 16 17 17 17 17 17 17 17 16 16 15 15 14 14 13 13 13 13 14 15 16 18 19 20 22 23 24 25 26 26 27 27 25 25 26 27 27 28 28 28 28 28 28 29 29 29 30 31 31
14 14 13 13 12 12 12 12 11 10 9 7 6 5 3 3 2 3 3 4 5 6 6 6 7 6 6 6 7 8 8 9 10 11 12 13 14 16 17 17 17 18 17 17 17 16 16 15 15 15 14 14 14 14 14 15 16 16 17 18 19 20 22 22 23 24 24 24 25 25 26 24 23 25 25 26 27 27 27 27 27 27 27 28 28 29 29 30
14 14 13 13 12 12 12 11 10 9 8 7 6 4 3 2 2 3 4 5 6 6 6 6 6 6 6 6 7 8 9 10 10 11 13 14 16 17 17 18 18 18 17 17 16 16 15 15 15 14 14 14 15 15 16 16 17 17 18 19 19 19 20 21 21 22 23 23 24 25 27 25 25 27 26 27 28 27 28 28 28 28 28 29 29 30 30 30
14 13 13 12 12 12 12 11 10 9 7 6 5 3 2 2 3 4 5 5 6 6 6 6 6 6 7 7 8 8 9 10 11 12 14 16 17 18 18 18 18 18 17 16 15 15 15 15 15 15 15 15 15 15 16 16 16 17 17 18 19 19 19 20 21 21 23 23 24 26 28 27 26 28 28 28 28 28 28 28 28 29 29 30 30 31 31 30
13 12 12 12 12 12 11 10 9 8 7 5 4 3 3 4 5 5 6 6 7 7 6 6 7 7 8 8 9 9 10 11 12 14 15 17 18 18 18 18 18 17 16 16 15 15 15 14 14 14 14 14 14 15 15 15 16 16 17 18 19 21 21 21 22 22 22 23 23 24 29 29 27 28 29 29 29 29 28 28 29 30 31 32 32 32 32 31
12 11 11 11 11 11 9 8 7 7 6 4 4 4 4 5 6 6 6 7 7 7 7 7 8 8 8 9 9 10 11 12 13 15 17 18 18 18 19 18 17 17 16 15 14 14 14 13 13 13 13 14 14 15 15 16 16 17 17 18 19 20 21 22 23 23 23 23 23 23 27 31 29 29 31 31 31 30 30 30 31 32 32 33 33 33 33 32
11 10 10 9 9 9 8 7 7 6 5 4 4 5 5 5 6 7 7 8 8 8 8 8 8 8 9 9 10 11 12 13 14 16 18 18 18 19 18 18 17 16 14 14 13 12 12 13 13 13 13 14 14 15 16 16 17 17 18 18 19 20 21 22 23 23 23 24 25 24 24 29 31 30 31 32 33 33 32 32 33 34 34 34 34 34 34 34
9 8 7 7 7 7 7 7 6 6 5 5 5 6 6 6 6 7 7 8 9 9 9 8 9 9 9 10 10 12 12 13 15 17 18 19 19 18 17 17 16 14 13 12 12 12 12 13 13 13 14 14 15 15 16 17 18 19 19 20 20 21 22 23 24 25 25 25 27 26 23 26 30 31 32 32 33 35 35 34 35 35 35 35 34 35 35 36
7 7 5 5 5 6 6 7 7 7 6 6 7 7 7 6 6 7 8 8 9 9 9 9 9 9 10 10 11 12 12 14 16 18 19 19 19 18 16 15 14 13 12 12 12 12 12 13 13 13 14 14 15 16 17 18 19 20 21 22 23 24 25 25 26 27 28 28 29 30 27 26 29 31 33 32 32 35 36 36 35 36 35 35 35 36 37 38
6 5 4 4 5 6 6 7 7 8 8 8 8 7 7 6 7 8 8 9 10 10 9 9 10 10 10 11 11 12 13 15 17 18 19 19 18 17 15 14 13 12 12 12 12 12 13 13 14 14 14 15 16 17 18 19 21 22 23 25 26 27 28 29 30 30 30 31 31 32 32 30 29 31 34 34 34 35 36 36 35 35 35 35 36 37 38 40
4 4 3 4 4 5 6 7 8 8 9 9 8 7 7 7 8 8 9 9 10 10 10 10 10 11 10 11 12 12 14 16 17 19 19 18 17 16 14 13 13 12 12 13 13 13 14 14 14 15 16 17 18 19 20 21 22 24 25 27 29 30 31 32 33 33 33 34 33 34 35 34 33 32 35 36 37 37 37 36 35 35 35 36 37 38 39 40
3 3 3 3 4 5 5 7 8 9 9 9 8 8 8 8 8 9 9 10 11 11 10 10 10 10 11 12 12 13 15 16 18 19 18 17 16 15 14 14 13 13 13 14 14 14 15 15 16 17 17 19 20 21 22 24 24 26 27 29 31 33 34 35 36 36 37 37 35 36 37 37 35 34 37 38 38 38 38 36 36 37 37 37 38 38 39 40
2 2 2 2 3 4 6 7 8 9 9 9 8 8 8 8 9 10 10 11 12 11 10 10 10 11 12 12 13 13 15 16 18 18 18 17 16 15 14 14 14 14 15 15 15 15 16 17 17 18 19 20 22 23 25 26 27 28 30 32 34 35 36 37 38 39 39 39 38 38 39 39 37 36 38 39 39 39 38 38 39 39 40 40 40 40 41 41
2 2 2 3 4 5 6 7 8 9 9 9 9 9 9 9 9 10 11 11 11 11 10 10 11 12 12 13 13 14 15 16 17 18 17 16 15 15 15 15 15 15 15 16 16 17 17 18 19 19 21 22 23 25 27 29 30 31 32 34 36 37 38 39 40 41 41 41 40 40 41 42 41 39 39 39 39 40 41 41 42 41 42 42 43 43 43 42
2 2 2 3 4 5 6 7 7 8 8 9 9 9 10 10 10 10 11 12 12 11 11 12 12 13 13 13 13 14 15 16 17 17 17 16 16 16 15 15 16 16 16 17 17 18 18 19 20 21 22 24 25 27 29 31 32 34 35 37 38 39 40 42 43 43 44 43 43 43 44 45 44 40 40 41 41 41 43 44 44 44 44 45 45 45 45 45
3 2 2 3 4 5 6 6 7 8 9 9 10 10 10 11 11 11 12 12 12 12 13 13 13 14 14 13 14 15 16 16 17 17 17 16 17 16 16 17 17 17 17 18 18 19 19 20 21 22 24 25 27 29 31 32 34 36 37 39 40 41 42 44 44 45 46 46 46 47 47 48 46 41 41 42 42 43 44 45 45 46 46 47 47 48 48 48
4 3 3 3 4 5 6 7 8 8 9 10 10 11 11 12 12 12 13 13 13 13 14 15 14 14 14 14 15 16 16 17 17 17 17 17 17 17 18 18 18 19 19 19 19 20 21 21 22 23 25 27 28 30 32 34 36 38 39 40 41 43 45 47 47 47 49 49 49 51 50 49 47 43 42 43 44 45 45 46 47 47 48 49 49 50 50 50
6 5 5 6 6 7 8 8 9 9 10 11 12 12 12 13 13 14 14 15 15 15 15 16 15 15 15 15 16 16 17 17 17 18 18 18 18 19 19 19 20 21 21 21 21 21 21 22 23 25 26 28 30 32 34 36 38 40 41 42 43 45 48 50 50 50 51 51 53 54 52 50 47 44 44 44 44 46 46 47 48 48 49 50 51 52 51 50
7 8 8 9 10 10 10 10 10 11 12 13 13 14 14 14 14 15 15 16 16 16 17 17 16 16 16 16 16 17 18 18 18 18 19 19 20 20 21 21 22 23 23 23 24 24 23 22 24 25 27 29 31 33 35 37 40 42 42 43 44 46 48 51 52 53 53 54 55 55 54 52 48 46 45 45 45 47 47 48 49 50 51 52 53 53 51 48
9 9 10 11 12 12 12 12 12 13 13 14 15 15 16 16 16 16 16 17 17 18 18 18 18 17 17 17 17 18 19 19 19 19 20 20 21 21 22 23 23 24 25 26 27 27 26 25 24 26 28 30 32 34 36 39 41 43 43 44 45 46 48 51 53 54 55 55 55 55 54 53 51 49 47 46 46 47 48 49 50 51 53 53 53 51 49 47
11 12 12 12 13 13 14 14 14 14 15 16 16 17 18 18 18 17 17 18 19 19 19 19 19 18 18 18 18 19 19 20 20 21 21 22 22 22 23 24 25 26 27 28 29 31 31 29 28 29 30 31 34 36 38 40 43 44 45 46 47 47 49 51 53 54 55 57 55 54 54 53 52 50 48 46 47 48 49 50 51 52 53 53 52 49 48 47
15 15 15 15 15 15 15 15 16 16 16 17 17 18 19 20 20 19 19 19 20 20 21 20 20 20 19 19 19 20 20 21 21 22 22 23 24 23 24 25 26 27 28 29 30 32 34 34 33 32 33 34 36 38 40 42 44 46 47 48 48 50 51 52 54 55 56 58 57 54 54 55 54 51 47 47 48 49 50 51 52 53 53 51 49 47 47 48
18 18 18 18 17 17 17 17 18 18 18 19 19 20 20 21 21 21 21 21 21 22 22 21 21 21 21 20 20 21 22 22 22 23 24 24 25 25 25 26 27 28 29 30 32 33 36 38 37 35 36 37 39 41 42 43 45 48 49 50 51 52 53 53 55 57 57 59 59 55 55 57 55 51 48 48 49 50 51 52 53 54 52 49 47 47 48 49
20 21 21 20 20 19 20 20 20 20 20 20 21 22 22 21 22 22 22 22 22 23 23 23 22 22 21 21 21 22 23 23 23 25 25 26 26 26 27 28 29 29 30 32 33 34 37 41 40 39 39 41 42 43 45 46 47 50 51 52 53 54 55 55 56 58 58 60 61 57 55 57 55 51 49 50 50 51 53 54 54 53 50 48 48 49 50 51
23 23 23 23 22 22 22 22 22 23 23 23 24 25 24 23 23 23 23 23 24 24 24 24 23 23 23 23 23 23 24 24 25 26 27 27 27 27 29 30 30 31 31 33 34 35 38 42 44 43 43 44 45 46 47 48 50 52 53 54 55 56 56 56 57 59 59 60 61 59 58 57 54 51 51 51 51 52 54 55 54 51 49 49 49 50 51 52
26 26 26 25 24 24 24 24 24 25 26 27 27 28 28 26 24 24 25 24 25 25 25 25 25 24 24 24 24 24 25 26 26 27 28 28 28 29 30 31 31 32 34 34 35 37 40 43 46 46 45 46 48 48 49 50 52 54 55 56 57 57 58 58 59 60 58 59 60 60 61 59 55 53 52 52 52 53 54 54 52 50 49 49 50 51 53 54
28 28 27 26 25 25 25 26 26 28 29 30 31 31 31 29 26 25 26 26 25 26 25 25 26 25 25 25 25 26 27 27 27 28 29 29 29 30 31 32 33 34 36 36 37 39 41 45 47 47 48 49 50 50 51 51 53 55 57 58 58 58 58 58 60 60 59 59 59 60 64 62 56 54 53 52 53 53 53 52 50 49 50 51 52 53 55 56
29 29 28 27 27 27 27 28 29 30 31 32 32 32 31 30 27 26 27 27 26 26 26 26 26 26 26 26 26 27 28 28 28 29 30 30 30 31 33 34 35 36 37 38 39 40 43 47 49 49 50 51 52 52 52 53 55 57 60 60 60 59 58 57 59 60 59 60 60 61 65 63 56 54 53 52 52 52 51 51 50 51 52 53 54 56 57 58
30 28 28 28 28 28 29 29 30 31 31 31 31 30 30 29 27 27 27 28 27 27 27 27 27 27 27 27 27 28 29 30 30 30 31 31 31 32 34 35 37 38 39 40 41 42 45 48 51 51 51 53 54 54 54 55 57 60 62 62 61 60 59 58 59 59 59 61 60 60 66 64 57 54 54 53 52 52 51 51 52 53 54 55 56 57 58 59
27 27 27 28 28 29 29 29 30 30 30 29 29 28 28 27 27 27 27 28 28 27 27 27 27 27 27 28 29 29 30 31 31 31 32 32 32 33 35 37 38 39 40 42 43 44 47 50 52 53 54 56 56 56 56 57 60 63 64 64 63 61 59 58 58 59 61 60 57 60 66 62 57 57 56 53 53 52 52 53 54 55 56 57 58 58 59 60
26 26 27 28 28 29 29 29 29 28 28 27 27 26 26 26 26 27 27 28 28 28 27 27 28 28 28 29 30 30 31 32 32 33 33 33 34 35 37 38 39 40 42 43 44 46 48 50 52 53 55 58 58 58 58 59 61 64 65 64 63 60 57 57 57 60 62 58 57 63 64 60 59 60 56 53 53 54 54 55 56 57 58 58 59 60 60 62
25 26 27 27 28 28 28 27 27 27 26 26 25 24 24 25 26 26 27 28 28 28 28 28 28 28 29 30 31 31 32 32 33 34 34 35 37 37 38 39 40 42 44 45 46 48 49 51 52 53 55 58 59 59 59 60 62 65 66 65 63 58 56 56 57 60 60 58 61 63 61 60 62 59 55 53 54 55 56 57 58 59 59 60 61 61 62 63
26 27 27 27 27 28 28 27 27 27 26 26 25 24 24 25 26 27 28 28 28 28 28 28 28 29 30 31 32 32 32 32 33 35 36 38 38 39 40 41 42 44 45 47 48 49 51 53 54 54 56 58 60 60 60 61 64 66 67 66 61 57 56 56 57 58 57 60 65 62 58 63 63 56 53 54 55 57 58 59 60 60 61 61 62 62 63 64
27 27 27 28 28 28 28 28 27 27 27 26 25 25 25 26 27 28 28 28 28 28 29 28 28 30 31 32 32 32 32 33 35 37 38 39 40 40 41 42 44 45 47 48 50 51 53 55 55 56 57 59 61 61 61 63 66 67 68 65 59 56 56 55 56 56 56 61 65 61 59 63 60 52 52 55 57 59 60 60 62 62 62 63 64 64 66 67
28 28 28 28 28 28 28 28 28 28 27 27 26 26 27 27 28 28 28 28 28 28 29 29 29 31 31 32 33 33 34 35 37 38 39 40 41 42 43 44 45 46 48 50 51 53 55 56 57 58 59 60 62 62 62 65 67 68 67 63 57 54 53 54 55 56 57 62 63 60 60 61 55 51 54 58 59 61 62 62 64 64 65 65 66 68 69 69
29 29 29 29 28 28 28 29 29 28 28 28 28 28 27 28 28 29 29 29 28 28 28 29 30 31 32 33 34 34 35 37 38 39 40 42 42 43 44 45 46 48 50 51 52 54 56 58 58 59 61 63 63 63 64 67 68 68 65 59 54 51 52 54 55 56 58 61 60 59 60 58 53 53 58 60 61 62 64 65 66 67 67 68 69 71 72 72
31 30 29 29 29 28 29 29 29 29 28 28 28 29 29 28 28 29 29 29 29 29 29 29 30 31 32 33 34 35 36 38 39 40 41 43 43 44 45 47 48 50 51 52 54 56 57 59 59 60 63 65 65 65 67 67 68 67 61 54 52 52 53 55 55 56 58 58 58 58 59 58 56 58 60 61 62 65 67 68 68 69 70 72 73 73 74 74
31 30 30 29 28 28 29 29 29 29 29 28 28 29 29 29 29 29 29 29 29 29 30 31 31 32 33 34 35 36 37 38 39 41 42 43 44 44 46 48 49 51 52 54 56 57 58 59 60 61 64 66 67 67 66 65 66 63 58 54 54 54 55 55 56 56 56 56 58 59 59 59 60 60 61 63 65 68 69 70 71 71 73 74 76 76 76 77
Wind_Direction
177 179 183 188 189 191 194 192 189 191 194 196 197 200 205 216 223 224 220 208 206 214 224 232 238 244 249 253 261 269 276 280 283 288 292 296 298 300 302 304 306 307 307 306 306 304 301 300 301 301 300 300 299 298 298 298 298 297 296 295 295 297 297 296 295 295 294 292 292 291 291 290 291 291 291 291 290 289 289 286 284 284 287 289 291 290 289 286
176 180 183 185 187 192 191 184 184 192 198 197 195 201 208 217 219 213 207 207 215 224 230 238 244 251 257 264 271 276 280 282 286 290 294 296 298 301 304 307 308 308 307 306 306 305 303 304 304 303 301 301 300 300 301 301 301 300 299 299 300 300 299 298 297 297 295 294 294 295 295 295 295 294 294 292 291 291 287 284 284 289 291 291 291 289 288 287
176 180 183 184 186 189 186 181 184 187 190 194 199 206 209 210 207 202 207 214 222 228 235 244 252 260 266 274 278 280 282 286 293 296 299 302 304 306 307 309 308 307 306 305 304 303 303 303 303 302 301 300 300 300 302 303 303 302 302 303 303 303 302 301 300 299 299 299 299 299 299 298 297 296 295 294 293 292 287 286 291 295 293 291 290 288 287 286
178 181 183 184 186 186 185 185 184 186 190 197 204 206 204 201 200 204 212 220 225 233 242 251 259 267 272 277 279 283 291 298 304 305 307 309 308 308 308 309 307 306 305 304 303 302 301 301 300 299 299 299 300 302 304 306 306 305 305 305 304 303 302 301 300 301 301 301 300 300 300 299 297 296 295 294 293 290 290 293 296 294 292 290 289 288 286 285
178 183 187 185 187 186 185 184 182 187 193 200 205 201 198 198 202 211 217 223 230 238 249 256 262 268 273 279 286 298 306 308 308 306 308 309 307 308 308 308 305 304 303 302 301 300 299 298 297 298 299 301 303 306 307 308 308 306 305 304 303 302 301 301 301 302 302 301 301 301 300 297 295 295 295 293 291 291 293 295 293 291 290 289 288 287 286 286
183 188 189 180 180 183 180 182 185 190 196 201 201 195 195 202 209 215 220 227 234 243 249 253 260 270 283 295 304 312 311 307 304 303 306 307 307 307 307 306 303 302 300 298 297 297 297 297 298 301 303 306 307 308 307 306 305 303 302 301 301 301 301 301 301 301 301 301 301 299 297 295 295 295 295 293 292 293 294 293 291 290 290 289 288 288 287 287
181 184 183 173 170 177 178 183 188 194 200 199 197 196 200 208 213 218 224 232 236 240 242 251 272 289 301 306 307 307 304 302 301 302 305 305 306 306 305 303 302 300 298 298 298 298 298 299 302 303 305 306 306 306 305 304 303 302 301 301 301 301 301 301 300 300 300 300 299 297 296 296 296 296 296 296 296 297 296 295 294 293 292 290 289 288 289 288
164 167 170 167 164 171 179 183 189 198 200 197 198 201 206 212 217 221 223 227 229 236 253 277 292 296 298 298 297 298 298 299 300 302 303 304 305 304 303 303 301 300 299 300 299 299 300 302 304 304 304 305 304 305 305 305 304 303 303 302 302 302 301 301 301 300 300 300 299 299 299 300 302 303 302 303 304 304 303 302 299 297 294 293 293 293 292 291
165 166 165 163 164 174 180 180 189 196 194 196 201 205 209 212 210 208 205 207 225 253 272 281 284 286 289 290 293 295 297 299 301 303 304 305 305 303 303 302 301 301 301 300 300 302 303 304 304 303 304 305 306 306 307 307 306 306 306 305 304 303 303 303 302 303 304 305 306 306 306 310 315 318 318 318 317 313 309 305 303 301 300 301 301 299 296 294
172 175 169 167 173 184 186 184 190 192 193 198 203 204 204 201 197 193 197 214 237 255 264 270 275 279 285 288 292 296 298 301 303 305 307 307 305 304 303 302 302 302 302 301 302 304 304 304 304 305 307 308 309 309 310 310 309 310 309 309 309 309 310 310 312 314 317 319 320 317 315 320 326 326 324 322 317 310 307 305 303 303 303 303 301 297 296 295
173 173 171 175 181 189 191 188 189 190 192 196 198 198 196 193 192 196 212 231 243 257 262 266 272 277 284 289 294 298 300 301 302 304 305 304 303 303 302 301 301 300 301 302 304 305 306 308 309 310 311 311 312 312 312 313 314 315 316 318 320 321 323 325 327 329 329 329 327 321 316 318 320 319 317 313 310 307 306 305 304 303 302 301 299 298 297 296
166 164 167 175 179 184 186 185 186 187 187 188 189 190 189 189 194 208 224 240 249 259 263 268 276 282 289 293 297 299 300 300 301 303 303 301 301 302 301 300 300 300 303 306 308 310 310 311 311 312 312 312 314 314 315 318 321 324 326 329 331 332 332 330 329 326 325 324 322 318 314 314 315 315 313 310 308 307 306 305 304 303 302 301 300 299 298 297
154 157 163 168 171 175 178 181 182 181 181 182 183 184 187 191 201 217 230 243 251 260 266 276 282 288 294 295 297 297 298 299 301 303 301 300 301 302 303 304 305 306 309 311 311 311 310 310 311 312 312 313 315 317 321 326 327 329 331 331 329 329 327 324 323 320 320 319 317 316 313 313 314 313 311 309 307 306 305 304 303 302 301 300 299 298 297 296
154 158 162 164 166 169 172 176 175 175 175 175 178 181 188 198 213 227 239 248 257 268 274 282 286 291 294 292 293 295 299 302 303 304 303 304 306 307 307 307 308 309 310 311 310 309 309 310 310 312 313 316 319 322 324 325 325 325 326 325 323 323 321 319 318 316 316 316 315 313 310 312 312 311 309 307 306 305 305 305 304 304 303 302 301 300 299 297
155 157 159 160 160 163 166 168 169 170 169 170 177 182 191 208 229 243 254 264 271 276 278 284 286 287 287 289 295 299 303 303 304 306 305 306 308 309 310 310 310 310 310 309 309 309 310 310 312 314 317 319 320 320 320 319 319 319 319 320 318 317 317 317 316 316 317 316 315 312 310 313 313 310 309 309 309 309 310 309 309 308 307 306 305 304 303 301
151 153 155 157 158 160 162 164 166 167 168 172 178 185 198 221 249 264 274 279 278 278 281 283 284 285 287 293 302 304 302 301 303 306 306 308 310 313 314 313 312 311 311 311 310 310 310 313 316 318 319 318 316 315 315 313 313 313 314 317 318 318 319 320 321 320 321 319 318 315 314 318 318 314 314 314 314 314 314 313 312 311 310 309 307 306 305 304
147 149 152 155 158 161 164 167 169 172 175 179 184 193 212 247 276 287 289 285 282 282 283 283 285 291 296 298 301 300 298 301 306 307 309 314 317 317 316 314 312 312 312 311 311 311 312 315 316 316 314 312 311 311 312 312 314 317 320 322 325 328 327 328 329 327 327 326 325 321 318 322 321 318 318 317 316 316 315 314 313 312 310 309 307 306 305 303
142 145 151 157 162 167 171 173 176 180 183 188 195 206 234 275 294 296 294 292 292 290 289 292 294 296 298 296 297 298 301 307 311 313 317 320 319 318 316 315 313 313 312 311 311 313 314 315 313 312 311 311 313 315 318 321 326 330 332 333 333 335 336 335 335 334 332 330 329 325 321 323 322 318 318 317 316 316 314 313 312 310 309 308 306 305 303 301
137 144 153 160 168 174 178 180 183 189 193 199 207 226 257 282 294 297 300 301 301 299 298 300 299 295 294 295 298 303 308 313 315 318 321 321 320 319 318 316 314 313 313 312 313 314 314 313 312 313 315 319 323 327 331 334 336 338 340 341 339 338 339 338 337 337 335 332 331 328 321 320 321 318 316 316 316 315 313 312 311 310 309 308 307 305 303 301
133 144 155 164 172 178 183 187 191 196 201 208 220 240 261 279 291 299 306 308 307 304 299 297 294 292 293 298 304 309 314 317 318 322 323 322 321 321 319 317 315 315 314 315 316 316 315 314 317 322 327 331 334 336 338 339 340 341 342 343 343 340 339 338 338 337 335 332 331 329 322 318 319 318 316 317 316 315 314 314 313 312 310 309 307 306 304 303
131 141 153 162 172 179 186 193 198 204 209 217 229 245 260 278 292 301 309 310 308 302 295 292 291 292 296 301 308 314 317 317 319 323 324 323 324 322 320 319 318 317 317 318 320 320 319 322 327 333 336 338 339 339 339 340 341 341 341 342 341 340 338 337 337 335 334 332 330 330 325 318 319 318 317 318 316 315 315 315 314 313 311 310 307 305 303 303
128 136 147 159 173 185 195 203 208 215 218 223 234 245 258 276 290 301 308 307 302 295 290 290 292 296 300 305 312 316 316 318 321 324 326 326 326 324 322 321 319 319 322 322 323 324 326 331 335 337 339 339 339 338 339 340 339 340 340 339 337 336 336 335 335 333 333 333 330 329 326 320 319 318 317 317 316 314 314 314 313 312 311 309 306 305 304 303
126 135 146 164 184 198 210 217 220 224 226 230 236 243 256 274 288 300 307 303 296 290 288 292 295 299 304 309 314 314 315 320 323 326 329 329 328 326 324 321 319 321 324 324 325 328 331 335 336 337 338 338 338 338 338 339 338 338 338 336 335 334 334 333 333 333 332 333 331 328 327 323 320 318 315 315 314 312 311 311 311 310 309 307 306 305 304 303
131 142 156 177 197 209 217 225 229 231 234 237 240 246 259 275 288 300 306 302 295 288 290 295 298 301 307 311 312 313 317 321 325 329 331 330 329 327 324 320 319 322 324 325 327 329 332 334 333 335 336 336 337 337 337 337 336 337 336 334 335 335 333 332 332 333 332 333 331 327 325 324 322 319 317 316 315 312 311 311 310 308 307 306 305 304 304 304
144 158 176 193 210 218 223 230 234 237 238 241 248 254 265 278 290 301 305 300 292 287 290 295 298 303 307 310 312 314 318 323 329 332 332 331 329 326 321 319 320 322 323 325 328 328 329 330 331 333 335 335 336 336 336 335 334 335 334 333 334 334 333 332 331 331 331 331 331 328 325 325 324 321 320 319 317 314 314 314 312 310 308 306 304 303 303 303
156 180 201 216 232 235 235 238 240 242 241 247 257 262 271 283 294 304 304 297 290 288 290 292 297 302 305 309 312 315 320 326 330 332 332 332 329 324 320 319 320 321 322 323 325 325 326 328 330 332 334 334 334 335 334 333 332 333 333 332 332 332 331 330 329 329 329 329 330 329 325 324 324 322 321 320 317 315 316 316 314 313 311 308 306 304 303 302
165 200 227 247 256 255 253 251 249 248 250 257 263 268 279 289 300 305 302 293 289 290 291 292 296 300 305 309 312 316 321 326 329 331 332 331 327 323 320 319 319 320 321 321 323 324 324 328 330 331 333 333 332 333 332 331 331 332 332 331 330 330 330 329 328 328 327 327 330 329 324 323 323 322 322 320 317 318 318 318 316 315 313 310 308 306 304 303
180 216 246 265 270 268 265 263 259 258 263 268 271 279 287 295 301 302 299 292 289 292 293 293 296 301 306 309 312 316 320 324 327 329 330 329 326 322 320 319 318 318 319 320 322 323 324 327 328 330 331 331 330 331 331 330 330 330 331 330 329 328 328 327 327 327 325 326 328 327 323 322 322 325 325 320 319 321 320 319 317 315 312 310 309 307 306 305
196 224 256 273 281 281 277 275 272 271 274 277 281 287 293 297 299 300 297 291 290 294 294 293 297 301 304 307 310 314 317 321 324 326 328 328 325 323 320 318 317 317 317 319 320 321 322 324 325 328 329 328 328 329 329 328 328 328 328 328 327 327 327 325 326 326 324 325 327 325 324 322 323 328 325 320 321 321 319 317 315 313 311 309 308 306 305 305
206 228 271 283 288 289 288 288 286 283 285 286 288 293 296 299 301 301 297 291 292 295 294 295 297 299 301 304 308 311 314 317 321 324 326 326 325 323 321 319 317 317 317 318 320 320 320 321 323 325 326 326 326 326 327 326 326 326 327 327 326 325 325 324 326 326 324 325 326 324 324 323 323 327 323 320 322 320 317 315 312 311 310 308 306 305 305 305
225 240 269 292 298 299 299 299 299 297 296 295 296 298 300 302 303 301 296 293 293 292 292 293 294 296 298 301 305 308 310 314 317 320 322 323 323 321 320 318 316 317 317 317 318 317 317 319 320 321 323 324 323 324 324 324 324 324 326 326 324 325 325 324 326 326 324 326 325 323 324 322 323 325 322 321 322 319 315 313 311 310 308 306 305 304 305 305
245 255 268 283 294 301 305 306 307 306 303 302 300 300 300 301 300 298 295 294 292 289 290 291 291 292 294 298 302 304 306 309 313 315 317 319 319 319 318 316 315 316 315 315 315 315 315 316 317 318 319 320 321 322 322 322 323 323 325 324 324 326 325 324 326 325 324 326 324 322 323 321 322 323 321 321 321 317 314 312 311 309 307 306 305 305 305 305
257 264 271 277 284 292 299 304 308 308 307 305 302 301 300 298 297 296 296 294 291 289 289 288 288 289 291 295 298 300 302 305 308 310 312 314 316 316 315 314 314 314 313 313 313 313 312 313 314 314 315 317 318 319 320 321 321 322 323 323 323 325 323 323 324 323 324 324 322 322 321 320 321 321 321 322 320 315 313 311 310 308 306 305 305 306 306 304
265 269 273 278 283 288 292 298 304 308 309 307 304 303 298 296 296 296 295 292 289 288 286 285 285 285 287 291 294 297 299 300 303 306 308 310 312 312 312 311 312 311 311 312 311 311 310 310 310 311 313 316 317 317 319 319 320 321 321 320 321 322 320 321 322 322 322 322 321 321 319 318 319 320 322 323 318 313 312 311 309 306 305 305 305 306 304 302
270 274 278 281 284 288 290 293 297 303 308 307 305 302 297 295 295 295 292 290 287 284 282 281 282 283 285 288 291 294 295 297 299 301 303 305 307 308 308 308 308 309 309 309 310 310 310 310 310 311 313 315 316 317 318 319 319 319 319 319 320 319 318 319 319 320 320 320 320 319 318 317 318 320 323 321 316 313 311 310 307 304 304 305 305 304 301 300
271 274 277 280 283 286 289 290 293 298 303 306 305 300 295 294 294 292 290 289 286 282 280 279 279 280 282 285 288 290 292 294 295 297 299 301 303 305 304 305 306 307 307 307 308 309 309 310 311 313 314 315 316 317 318 318 318 318 318 318 318 318 318 318 317 318 318 318 318 318 317 316 317 320 323 320 315 313 311 308 305 303 304 305 303 301 299 299
271 274 276 279 281 284 287 288 290 293 298 302 302 298 295 294 292 291 290 288 285 282 279 277 278 279 281 283 285 286 288 291 292 295 296 298 301 303 302 303 304 305 305 305 305 307 308 308 310 312 313 314 315 316 317 318 317 317 317 317 317 318 318 317 316 317 317 316 317 317 317 316 317 321 323 318 314 312 310 307 304 303 304 303 301 299 298 298
272 275 277 279 282 284 287 287 288 290 294 298 298 296 295 293 291 290 290 288 285 282 279 277 277 279 280 281 281 282 286 289 290 292 294 296 300 301 301 301 302 303 303 303 304 306 306 306 308 310 311 313 315 315 317 318 318 317 317 317 317 317 317 317 316 315 316 315 314 316 317 316 318 322 322 317 314 312 308 305 303 304 303 301 300 299 299 299
273 276 279 281 284 286 287 288 288 289 292 295 295 294 294 292 291 290 289 287 285 282 279 277 277 278 279 279 280 281 284 286 288 290 292 296 298 298 299 299 300 301 300 301 303 304 305 305 307 310 311 313 314 315 317 318 318 316 316 316 316 316 316 315 315 314 314 313 312 314 315 316 319 322 319 315 313 309 305 303 303 303 301 300 300 299 299 298
271 274 278 281 284 286 288 288 289 290 291 293 293 292 292 291 290 288 287 286 284 282 279 277 277 278 278 279 280 281 283 285 287 288 291 296 297 296 297 298 298 298 299 300 302 303 304 304 305 308 311 312 314 315 316 317 317 316 316 315 315 315 314 314 314 314 313 310 309 311 313 315 319 320 317 314 310 306 303 302 302 301 300 299 299 298 298 297
270 273 275 278 280 284 286 288 289 290 291 291 290 290 289 288 286 285 285 284 283 281 280 277 277 278 278 279 279 280 282 284 286 288 292 295 295 295 296 297 297 297 298 300 301 302 302 303 304 307 310 311 312 313 315 316 316 315 314 314 315 314 313 313 313 312 311 308 309 310 310 313 319 319 315 311 308 304 302 300 300 300 299 298 297 297 296 295
271 273 274 276 278 281 284 286 289 290 290 290 289 287 286 284 282 282 282 282 282 281 279 277 277 277 278 279 280 280 282 284 286 288 291 293 294 294 295 295 295 296 298 299 300 301 301 302 303 306 309 310 310 312 315 315 314 314 313 314 314 313 313 312 310 311 310 307 310 310 307 312 320 317 311 309 306 303 300 299 299 298 297 297 297 296 296 296
272 274 275 277 279 282 285 287 290 291 291 290 289 287 284 282 280 280 280 280 281 280 279 277 277 277 278 280 280 281 281 284 286 288 290 291 293 293 293 293 294 296 297 298 299 300 301 302 303 306 308 308 309 312 314 314 313 313 313 313 313 313 313 311 309 309 307 308 313 308 304 313 321 314 308 308 305 302 299 298 298 297 297 297 297 296 297 297
275 277 279 281 283 285 287 289 291 292 292 291 289 287 284 282 280 279 279 280 281 280 279 277 277 277 278 280 281 281 281 283 286 288 289 291 291 291 291 292 294 295 296 297 298 299 301 302 304 307 308 308 310 312 313 313 313 312 312 312 312 312 311 309 308 307 306 311 313 304 303 314 317 308 308 309 304 300 299 298 298 298 298 298 297 298 298 298
279 280 282 284 286 287 288 290 291 291 291 290 289 287 285 283 280 278 279 280 281 281 279 278 277 278 280 281 281 280 280 282 286 289 290 290 290 290 291 293 294 295 295 296 298 299 300 302 304 306 307 308 310 311 311 311 311 310 311 311 310 311 309 308 306 305 307 311 307 302 306 313 310 306 309 307 301 299 298 298 299 299 299 298 298 299 299 299
284 285 286 286 287 287 288 289 289 289 289 289 289 288 286 283 281 279 280 281 282 282 281 279 278 279 280 280 279 280 281 283 286 288 289 288 289 291 292 294 294 295 296 297 298 299 300 302 304 305 306 307 308 309 309 309 309 309 310 309 309 309 308 307 306 307 309 307 303 305 310 309 306 308 308 304 300 299 298 299 300 299 299 299 300 300 300 300
288 288 289 289 289 288 288 288 287 287 287 287 288 288 286 284 282 282 282 283 284 283 282 280 279 279 278 279 280 282 284 285 286 286 286 288 290 292 293 294 294 295 297 298 299 300 300 302 303 304 305 306 307 307 308 308 308 308 309 309 309 308 308 308 307 308 307 303 302 309 309 303 306 310 305 301 299 298 299 301 300 300 300 301 301 301 301 301
290 290 290 290 289 288 287 286 286 286 286 287 288 288 286 285 285 285 285 285 284 282 281 280 278 278 279 280 282 284 285 285 284 284 286 288 290 291 292 293 294 296 297 298 299 300 300 302 303 304 305 305 305 306 308 307 307 308 308 308 309 310 309 308 307 307 305 301 303 308 304 301 307 309 302 299 299 300 301 301 301 301 301 301 301 301 300 301
288 288 289 289 288 288 287 286 285 285 286 286 287 287 288 288 287 286 286 285 284 282 281 280 278 278 280 281 283 285 285 285 284 285 287 288 289 290 292 293 295 296 297 298 299 300 300 302 303 304 304 304 305 306 307 306 307 308 307 308 311 312 309 307 307 307 304 302 304 304 300 302 308 305 299 299 300 301 301 301 301 302 301 300 301 301 301 301
286 286 286 287 288 287 287 286 285 286 286 287 287 288 289 289 288 288 286 285 284 283 281 280 279 280 281 282 284 285 285 286 287 288 288 288 289 291 292 294 295 296 297 298 299 300 301 303 304 304 304 304 305 306 306 307 307 306 307 311 313 310 306 306 307 305 303 302 303 301 300 304 306 302 299 301 301 301 301 301 302 301 300 301 301 301 302 302
283 283 284 285 286 287 286 286 286 286 287 288 288 289 290 289 289 288 287 287 286 285 284 283 282 282 283 284 285 285 286 287 288 289 289 290 291 292 294 295 296 297 298 299 300 302 302 303 305 304 303 305 306 306 306 306 305 306 310 312 309 307 307 307 305 304 304 303 302 301 302 305 304 301 301 301 300 301 302 302 302 301 301 301 301 302 302 303
281 282 283 283 285 287 286 286 286 287 288 289 289 290 290 290 290 289 288 288 287 287 286 286 285 285 285 285 285 285 287 288 289 289 290 291 292 293 295 296 297 298 299 300 301 302 303 304 304 303 303 305 306 305 305 305 304 307 310 309 307 308 308 306 305 305 304 302 301 302 303 304 302 301 301 300 301 301 302 302 301 301 301 301 301 302 302 303
Height
5776 5778 5780 5782 5784 5786 5788 5790 5792 5793 5794 5796 5797 5798 5799 5800 5801 5801 5802 5803 5804 5805 5805 5805 5805 5805 5804 5804 5804 5804 5804 5803 5803 5802 5802 5801 5801 5800 5800 5799 5799 5799 5798 5798 5797 5797 5796 5796 5795 5795 5794 5794 5793 5792 5792 5791 5790 5789 5788 5787 5787 5786 5785 5784 5784 5783 5782 5781 5780 5780 5779 5779 5778 5777 5777 5776 5775 5775 5774 5772 5771 5770 5770 5770 5770 5770 5770 5770
5776 5778 5779 5781 5784 5786 5788 5789 5791 5793 5794 5795 5796 5798 5799 5799 5800 5801 5802 5803 5804 5804 5804 5804 5804 5803 5803 5803 5803 5802 5802 5801 5801 5801 5800 5800 5799 5799 5799 5798 5798 5798 5797 5796 5796 5795 5795 5794 5794 5793 5793 5792 5791 5790 5789 5789 5788 5787 5786 5785 5785 5784 5783 5782 5781 5780 5780 5779 5778 5778 5777 5776 5776 5775 5775 5774 5773 5772 5771 5769 5769 5769 5769 5768 5768 5767 5767 5766
5775 5777 5779 5781 5784 5786 5787 5789 5791 5792 5793 5795 5796 5797 5798 5799 5800 5801 5802 5802 5803 5803 5803 5803 5803 5802 5802 5802 5801 5801 5800 5800 5800 5800 5799 5799 5798 5798 5798 5797 5797 5796 5796 5795 5795 5794 5794 5793 5792 5792 5791 5791 5790 5788 5788 5787 5786 5785 5784 5783 5783 5782 5781 5780 5779 5778 5778 5777 5776 5776 5775 5774 5773 5773 5772 5771 5771 5769 5767 5766 5767 5767 5766 5765 5764 5764 5763 5763
5775 5777 5779 5781 5783 5785 5787 5789 5790 5792 5793 5795 5796 5797 5798 5799 5800 5800 5801 5801 5802 5802 5802 5802 5801 5801 5801 5800 5800 5800 5799 5799 5799 5798 5798 5798 5797 5797 5797 5796 5796 5795 5795 5794 5794 5793 5792 5791 5791 5790 5790 5789 5788 5787 5786 5785 5784 5783 5782 5782 5781 5780 5779 5778 5777 5776 5775 5775 5774 5773 5772 5771 5770 5770 5768 5768 5767 5765 5764 5764 5764 5763 5762 5761 5760 5759 5759 5758
5775 5777 5779 5781 5783 5785 5787 5788 5790 5791 5793 5794 5796 5797 5798 5798 5799 5799 5800 5800 5800 5801 5801 5801 5800 5800 5799 5799 5799 5798 5798 5798 5798 5797 5797 5797 5796 5796 5796 5795 5795 5794 5794 5793 5793 5792 5791 5790 5790 5789 5788 5787 5787 5785 5784 5784 5783 5782 5781 5780 5779 5778 5777 5775 5775 5774 5773 5772 5771 5770 5769 5768 5767 5766 5765 5764 5763 5762 5762 5761 5760 5759 5758 5757 5756 5755 5754 5753
5775 5777 5779 5780 5783 5785 5786 5788 5789 5791 5793 5794 5796 5796 5797 5798 5798 5798 5799 5799 5799 5800 5800 5799 5799 5798 5798 5798 5798 5797 5797 5797 5797 5797 5797 5796 5795 5795 5795 5794 5794 5793 5793 5792 5792 5791 5790 5789 5788 5787 5786 5785 5785 5784 5783 5782 5781 5780 5779 5778 5777 5775 5774 5773 5772 5771 5770 5769 5768 5767 5766 5765 5764 5763 5762 5760 5759 5759 5759 5757 5756 5755 5754 5753 5752 5751 5750 5749
5775 5777 5779 5780 5781 5784 5786 5787 5789 5790 5792 5794 5795 5796 5796 5797 5797 5798 5798 5798 5798 5798 5798 5798 5798 5797 5797 5797 5797 5797 5797 5797 5796 5796 5796 5795 5795 5794 5794 5793 5793 5792 5792 5791 5790 5789 5788 5788 5787 5786 5784 5783 5782 5782 5781 5780 5779 5778 5777 5775 5774 5773 5772 5771 5770 5769 5768 5767 5765 5764 5762 5761 5761 5760 5759 5757 5756 5756 5755 5753 5752 5751 5750 5749 5748 5747 5747 5746
5775 5777 5779 5780 5781 5784 5786 5787 5789 5790 5792 5794 5795 5795 5796 5796 5797 5797 5797 5797 5797 5797 5797 5797 5797 5797 5797 5797 5796 5796 5796 5796 5795 5795 5795 5794 5794 5793 5793 5792 5792 5791 5790 5789 5788 5788 5787 5786 5785 5784 5783 5782 5780 5779 5778 5777 5776 5775 5774 5773 5772 5771 5769 5768 5767 5766 5765 5763 5762 5760 5759 5758 5758 5757 5756 5755 5753 5752 5751 5750 5749 5748 5747 5746 5745 5744 5744 5742
5775 5777 5779 5781 5782 5784 5786 5787 5789 5790 5792 5793 5794 5795 5795 5795 5796 5796 5796 5796 5796 5796 5796 5796 5796 5796 5796 5796 5796 5796 5795 5795 5794 5794 5794 5793 5793 5792 5792 5791 5791 5790 5789 5788 5787 5786 5785 5784 5783 5782 5781 5780 5778 5777 5776 5775 5773 5772 5771 5770 5769 5768 5767 5766 5764 5763 5762 5761 5760 5758 5756 5756 5755 5754 5753 5753 5751 5750 5749 5747 5746 5745 5744 5744 5743 5742 5741 5740
5775 5777 5779 5781 5782 5784 5786 5787 5789 5790 5791 5792 5793 5794 5794 5795 5795 5795 5795 5796 5796 5796 5796 5796 5796 5796 5795 5795 5795 5795 5794 5794 5793 5793 5793 5792 5792 5792 5791 5790 5789 5788 5787 5786 5785 5784 5783 5782 5781 5780 5779 5777 5776 5775 5773 5772 5771 5770 5769 5768 5766 5765 5764 5763 5762 5761 5760 5759 5758 5756 5754 5754 5754 5753 5752 5751 5749 5748 5746 5745 5744 5743 5743 5742 5741 5739 5738 5737
5775 5777 5779 5781 5783 5785 5786 5787 5789 5790 5791 5792 5793 5793 5794 5794 5794 5795 5795 5795 5795 5795 5796 5795 5795 5795 5795 5795 5794 5794 5793 5793 5793 5792 5792 5791 5791 5791 5790 5789 5788 5787 5786 5785 5784 5783 5781 5780 5779 5778 5776 5775 5774 5773 5771 5770 5769 5768 5767 5766 5764 5763 5762 5762 5761 5760 5759 5758 5757 5755 5753 5752 5752 5751 5750 5748 5747 5745 5744 5743 5742 5741 5740 5739 5738 5737 5736 5735
5776 5777 5779 5781 5783 5785 5786 5788 5789 5790 5791 5792 5792 5793 5793 5794 5794 5794 5795 5795 5795 5795 5795 5795 5795 5794 5794 5794 5793 5793 5793 5792 5792 5791 5791 5791 5790 5789 5789 5788 5787 5786 5784 5783 5782 5781 5779 5778 5777 5776 5774 5773 5772 5771 5770 5769 5767 5766 5765 5764 5763 5762 5761 5761 5760 5759 5758 5757 5755 5753 5751 5750 5750 5749 5747 5746 5744 5743 5741 5740 5739 5738 5737 5736 5735 5733 5732 5731
5776 5778 5780 5782 5783 5785 5786 5788 5789 5790 5791 5791 5792 5792 5793 5793 5794 5794 5794 5795 5795 5795 5794 5794 5794 5794 5793 5793 5793 5792 5792 5792 5791 5791 5790 5790 5789 5788 5787 5786 5785 5784 5782 5781 5780 5779 5778 5776 5775 5774 5773 5772 5771 5769 5768 5767 5766 5765 5764 5763 5762 5761 5760 5759 5758 5757 5756 5755 5754 5752 5749 5748 5747 5746 5744 5743 5741 5740 5738 5737 5736 5735 5734 5732 5731 5730 5729 5728
5777 5779 5781 5782 5784 5785 5787 5788 5789 5790 5791 5791 5792 5792 5793 5793 5794 5794 5794 5794 5794 5794 5794 5793 5793 5793 5792 5792 5792 5792 5791 5791 5790 5790 5789 5788 5788 5787 5786 5785 5783 5782 5781 5780 5778 5777 5776 5775 5774 5773 5772 5770 5769 5768 5767 5766 5765 5764 5763 5761 5760 5760 5758 5757 5756 5755 5754 5753 5751 5749 5747 5746 5745 5743 5741 5740 5738 5737 5736 5734 5733 5732 5730 5729 5728 5726 5725 5724
5779 5780 5782 5783 5784 5786 5787 5788 5789 5790 5790 5791 5791 5792 5792 5793 5793 5794 5794 5794 5794 5793 5793 5793 5792 5792 5792 5792 5791 5791 5790 5790 5789 5789 5788 5787 5786 5785 5784 5783 5782 5781 5779 5778 5777 5776 5775 5774 5772 5771 5770 5769 5768 5767 5766 5765 5764 5762 5761 5760 5759 5758 5757 5756 5754 5753 5751 5750 5749 5747 5745 5745 5743 5741 5739 5738 5736 5735 5733 5732 5730 5729 5728 5726 5725 5723 5722 5720
5780 5781 5782 5784 5785 5786 5787 5788 5789 5790 5790 5791 5791 5792 5792 5793 5793 5793 5793 5793 5793 5793 5792 5792 5791 5791 5791 5791 5790 5790 5789 5789 5788 5788 5787 5786 5785 5784 5782 5781 5780 5779 5778 5777 5775 5774 5773 5772 5771 5770 5769 5768 5767 5766 5765 5764 5762 5761 5760 5759 5757 5756 5755 5754 5752 5751 5750 5748 5746 5744 5743 5742 5740 5738 5737 5735 5734 5733 5731 5730 5728 5726 5725 5723 5722 5720 5719 5717
5780 5781 5783 5784 5785 5786 5787 5788 5789 5790 5790 5791 5791 5792 5792 5792 5792 5793 5793 5792 5792 5792 5791 5791 5791 5790 5790 5790 5789 5789 5789 5788 5787 5787 5786 5785 5783 5782 5781 5780 5779 5777 5776 5775 5774 5773 5772 5770 5769 5769 5768 5767 5766 5764 5763 5762 5761 5760 5758 5757 5756 5755 5753 5752 5751 5749 5748 5746 5745 5742 5740 5739 5738 5736 5734 5733 5732 5730 5728 5727 5725 5723 5722 5720 5719 5717 5716 5714
5780 5782 5783 5784 5786 5787 5788 5788 5789 5790 5790 5791 5791 5791 5792 5792 5792 5792 5792 5792 5791 5791 5790 5790 5790 5790 5789 5789 5789 5788 5788 5787 5786 5785 5784 5783 5782 5781 5779 5778 5777 5776 5775 5773 5772 5771 5770 5769 5768 5767 5766 5765 5764 5763 5762 5761 5759 5758 5756 5755 5754 5753 5752 5751 5749 5748 5746 5744 5743 5740 5737 5737 5735 5733 5732 5730 5729 5728 5726 5724 5722 5720 5719 5717 5716 5714 5712 5711
5781 5782 5784 5785 5786 5787 5788 5788 5789 5789 5790 5790 5790 5791 5791 5791 5791 5791 5791 5791 5790 5790 5790 5789 5789 5789 5789 5788 5788 5787 5786 5786 5785 5784 5783 5782 5780 5779 5778 5777 5775 5774 5773 5772 5771 5770 5769 5768 5767 5766 5765 5764 5762 5761 5760 5759 5758 5756 5755 5754 5752 5751 5750 5749 5747 5746 5744 5743 5741 5739 5735 5734 5733 5731 5729 5728 5726 5725 5723 5721 5720 5718 5716 5714 5712 5711 5709 5707
5782 5783 5784 5785 5786 5787 5788 5788 5789 5789 5789 5790 5790 5790 5790 5791 5791 5790 5790 5790 5789 5789 5789 5789 5789 5788 5788 5787 5786 5786 5785 5784 5783 5782 5781 5780 5779 5778 5776 5775 5774 5773 5772 5770 5769 5769 5768 5767 5766 5764 5763 5762 5761 5760 5758 5757 5756 5755 5754 5753 5751 5750 5748 5747 5745 5744 5743 5741 5739 5738 5734 5730 5730 5729 5726 5725 5724 5722 5720 5718 5716 5714 5712 5710 5708 5707 5705 5703
5783 5784 5785 5785 5786 5787 5788 5788 5788 5789 5789 5789 5789 5790 5790 5790 5790 5790 5789 5789 5789 5788 5788 5788 5788 5787 5787 5786 5785 5784 5784 5783 5782 5781 5780 5779 5778 5776 5775 5774 5773 5771 5770 5769 5768 5768 5767 5765 5764 5763 5762 5760 5759 5758 5757 5756 5755 5754 5752 5751 5750 5749 5747 5746 5744 5742 5741 5739 5737 5736 5733 5728 5726 5725 5724 5722 5721 5719 5717 5715 5713 5710 5708 5707 5705 5703 5701 5699
5783 5784 5785 5786 5786 5787 5787 5788 5788 5788 5788 5788 5789 5789 5789 5789 5789 5789 5788 5788 5788 5788 5787 5787 5787 5786 5785 5785 5784 5783 5782 5782 5781 5780 5779 5777 5776 5775 5773 5772 5771 5770 5769 5768 5767 5766 5765 5764 5763 5762 5760 5759 5758 5757 5756 5755 5753 5752 5751 5750 5749 5747 5746 5744 5743 5741 5739 5738 5735 5733 5731 5727 5723 5722 5720 5720 5718 5715 5714 5712 5710 5707 5705 5703 5701 5699 5697 5695
5784 5784 5785 5785 5786 5786 5787 5787 5787 5788 5788 5788 5788 5788 5788 5789 5788 5788 5788 5787 5787 5787 5786 5786 5785 5785 5784 5783 5783 5782 5781 5781 5780 5779 5777 5776 5774 5773 5772 5771 5770 5769 5768 5767 5766 5765 5764 5763 5762 5760 5759 5758 5757 5756 5755 5753 5752 5751 5749 5748 5747 5745 5744 5742 5741 5739 5736 5735 5732 5730 5728 5725 5721 5719 5717 5716 5716 5713 5711 5709 5707 5704 5702 5699 5697 5695 5693 5690
5784 5785 5785 5785 5786 5786 5787 5787 5787 5787 5787 5788 5788 5788 5788 5788 5787 5787 5787 5786 5786 5786 5785 5785 5784 5783 5783 5782 5781 5781 5780 5780 5778 5777 5776 5774 5773 5772 5771 5770 5769 5768 5767 5766 5765 5764 5763 5762 5760 5759 5758 5757 5756 5754 5753 5752 5750 5749 5747 5746 5744 5743 5741 5739 5737 5736 5734 5732 5730 5727 5724 5721 5718 5716 5714 5712 5711 5709 5707 5705 5703 5701 5699 5696 5694 5691 5689 5686
5784 5785 5785 5785 5786 5786 5786 5786 5787 5787 5787 5787 5787 5787 5787 5787 5786 5786 5785 5785 5785 5785 5784 5783 5782 5782 5781 5781 5780 5780 5779 5778 5777 5776 5774 5773 5772 5771 5770 5769 5768 5767 5766 5765 5764 5763 5762 5760 5759 5758 5757 5755 5754 5753 5751 5750 5748 5747 5745 5743 5742 5740 5738 5736 5734 5732 5730 5729 5727 5724 5721 5718 5714 5711 5709 5708 5705 5703 5702 5700 5698 5696 5695 5693 5690 5687 5685 5682
5785 5785 5785 5785 5785 5785 5786 5786 5786 5786 5787 5787 5786 5786 5786 5786 5785 5785 5784 5784 5784 5783 5783 5782 5781 5781 5780 5780 5779 5778 5778 5777 5776 5774 5773 5772 5771 5770 5769 5768 5767 5766 5765 5764 5763 5762 5760 5759 5758 5756 5755 5754 5752 5751 5749 5748 5746 5745 5743 5741 5739 5737 5735 5733 5731 5729 5727 5725 5724 5721 5717 5715 5713 5709 5705 5704 5701 5699 5697 5695 5693 5691 5689 5687 5684 5682 5680 5678
5785 5785 5785 5785 5785 5785 5785 5785 5786 5786 5786 5786 5785 5785 5785 5784 5784 5783 5783 5783 5782 5782 5781 5781 5780 5779 5779 5779 5778 5777 5776 5775 5774 5773 5772 5771 5770 5769 5768 5767 5765 5764 5763 5762 5761 5760 5759 5757 5756 5755 5753 5752 5750 5749 5747 5745 5744 5742 5741 5738 5736 5734 5732 5730 5728 5726 5723 5721 5720 5717 5714 5712 5711 5708 5704 5700 5697 5695 5693 5690 5688 5686 5683 5681 5679 5677 5675 5673
5785 5785 5785 5785 5785 5785 5785 5785 5785 5785 5785 5785 5784 5784 5784 5783 5783 5782 5782 5782 5781 5780 5780 5779 5779 5778 5778 5777 5776 5776 5775 5774 5773 5772 5771 5770 5769 5768 5767 5766 5764 5763 5762 5761 5760 5758 5757 5756 5754 5753 5752 5750 5748 5747 5745 5743 5741 5740 5738 5736 5733 5731 5729 5727 5724 5722 5719 5717 5715 5713 5710 5707 5705 5705 5701 5696 5693 5691 5688 5685 5683 5681 5678 5676 5673 5671 5669 5667
5785 5785 5785 5785 5784 5784 5784 5785 5784 5784 5784 5783 5783 5783 5782 5782 5782 5781 5781 5780 5780 5779 5778 5778 5777 5777 5776 5775 5775 5774 5773 5773 5772 5771 5770 5769 5767 5766 5765 5764 5763 5762 5761 5759 5758 5757 5755 5754 5753 5751 5750 5748 5746 5744 5742 5740 5738 5737 5735 5733 5730 5728 5726 5723 5721 5718 5715 5713 5711 5708 5706 5702 5700 5700 5697 5692 5690 5688 5684 5681 5678 5675 5673 5671 5668 5665 5663 5661
5785 5784 5784 5784 5784 5784 5784 5784 5784 5783 5783 5782 5782 5782 5781 5781 5780 5780 5779 5778 5778 5777 5777 5776 5776 5775 5774 5774 5773 5773 5772 5771 5770 5769 5768 5767 5766 5765 5764 5763 5762 5760 5759 5758 5756 5755 5754 5752 5751 5749 5747 5746 5744 5742 5740 5738 5736 5734 5732 5730 5727 5725 5722 5719 5717 5714 5710 5708 5706 5703 5700 5697 5695 5695 5692 5688 5686 5683 5680 5677 5674 5671 5668 5665 5662 5660 5657 5655
5784 5784 5784 5784 5784 5784 5784 5783 5783 5782 5782 5781 5781 5780 5780 5779 5779 5778 5777 5777 5776 5776 5775 5774 5774 5773 5773 5772 5772 5771 5770 5769 5769 5768 5767 5766 5765 5763 5762 5761 5760 5759 5757 5756 5755 5753 5752 5750 5748 5747 5745 5743 5741 5740 5738 5735 5733 5731 5729 5726 5723 5721 5718 5714 5712 5710 5706 5703 5700 5697 5695 5692 5690 5690 5688 5684 5682 5678 5675 5672 5669 5666 5663 5660 5657 5654 5652 5649
5784 5784 5784 5784 5783 5783 5783 5782 5782 5781 5780 5780 5780 5779 5778 5778 5777 5776 5775 5775 5774 5774 5773 5773 5772 5771 5771 5770 5770 5769 5768 5768 5767 5766 5765 5764 5763 5762 5761 5759 5758 5757 5755 5754 5753 5751 5750 5748 5747 5745 5743 5741 5739 5737 5735 5733 5730 5728 5725 5722 5719 5717 5713 5709 5708 5705 5701 5699 5695 5692 5690 5687 5686 5685 5683 5681 5678 5673 5669 5666 5663 5660 5656 5653 5651 5648 5646 5643
5783 5783 5783 5783 5782 5782 5782 5781 5780 5780 5779 5779 5778 5778 5777 5776 5775 5775 5774 5773 5772 5772 5771 5771 5770 5769 5769 5768 5768 5767 5766 5766 5765 5764 5763 5762 5761 5760 5759 5757 5756 5754 5753 5751 5750 5749 5748 5747 5745 5743 5741 5739 5737 5735 5732 5730 5727 5725 5722 5719 5716 5714 5710 5706 5704 5700 5698 5695 5690 5686 5684 5681 5681 5680 5678 5676 5672 5668 5664 5660 5657 5653 5650 5647 5644 5642 5639 5636
5783 5783 5782 5782 5781 5781 5780 5780 5779 5778 5778 5777 5777 5776 5775 5774 5773 5773 5772 5771 5770 5770 5769 5769 5768 5767 5767 5766 5766 5765 5764 5764 5763 5762 5761 5760 5759 5758 5757 5755 5754 5752 5750 5748 5747 5745 5744 5744 5743 5741 5739 5737 5735 5732 5730 5727 5724 5721 5719 5716 5713 5711 5707 5704 5700 5697 5694 5691 5687 5683 5679 5675 5674 5674 5672 5670 5666 5662 5658 5655 5651 5647 5644 5641 5638 5636 5633 5630
5782 5781 5781 5780 5780 5779 5779 5778 5778 5777 5776 5776 5775 5774 5773 5772 5772 5771 5770 5769 5769 5768 5767 5766 5766 5765 5764 5764 5763 5763 5762 5761 5761 5760 5759 5758 5757 5756 5755 5753 5751 5750 5748 5746 5744 5741 5740 5740 5739 5738 5736 5734 5732 5729 5726 5723 5720 5718 5715 5712 5710 5707 5703 5700 5696 5693 5689 5686 5683 5679 5674 5671 5669 5668 5667 5664 5660 5656 5652 5649 5645 5641 5638 5635 5632 5630 5626 5623
5780 5780 5779 5779 5778 5778 5777 5777 5776 5775 5775 5774 5774 5773 5771 5771 5770 5769 5768 5767 5766 5766 5765 5764 5764 5763 5762 5762 5761 5760 5760 5759 5758 5757 5757 5756 5755 5754 5752 5750 5749 5747 5745 5743 5741 5738 5735 5734 5734 5734 5732 5730 5728 5725 5723 5720 5716 5713 5710 5708 5705 5702 5699 5694 5690 5688 5684 5680 5677 5674 5669 5664 5663 5663 5662 5658 5653 5650 5646 5642 5638 5635 5632 5629 5626 5624 5621 5617
5779 5778 5778 5777 5777 5776 5775 5775 5774 5773 5773 5772 5771 5770 5769 5769 5767 5766 5766 5765 5764 5763 5763 5762 5761 5761 5760 5759 5759 5758 5757 5757 5756 5755 5754 5753 5752 5751 5750 5748 5746 5744 5742 5740 5738 5736 5732 5730 5730 5730 5728 5726 5724 5721 5719 5717 5712 5708 5705 5702 5699 5696 5693 5689 5684 5680 5678 5673 5669 5668 5664 5658 5656 5657 5656 5651 5647 5643 5639 5635 5631 5628 5626 5623 5620 5617 5614 5611
5777 5776 5776 5775 5775 5774 5773 5772 5772 5771 5771 5770 5769 5768 5767 5766 5765 5764 5763 5762 5761 5761 5760 5760 5759 5758 5757 5757 5756 5755 5754 5754 5753 5752 5751 5750 5749 5748 5746 5745 5743 5741 5739 5737 5735 5733 5729 5726 5725 5725 5724 5722 5720 5717 5714 5712 5708 5704 5700 5697 5694 5690 5687 5683 5679 5674 5671 5666 5661 5661 5660 5654 5651 5652 5649 5645 5641 5636 5632 5628 5624 5622 5620 5616 5614 5611 5607 5604
5775 5774 5774 5773 5773 5772 5771 5770 5769 5769 5768 5767 5766 5765 5764 5764 5762 5761 5760 5759 5759 5758 5757 5757 5756 5756 5755 5754 5753 5753 5752 5751 5750 5749 5748 5747 5747 5745 5743 5741 5740 5738 5736 5734 5732 5730 5726 5722 5720 5720 5719 5717 5715 5712 5709 5707 5703 5699 5695 5691 5688 5685 5681 5677 5673 5668 5665 5660 5653 5652 5652 5649 5648 5648 5644 5639 5635 5630 5625 5622 5619 5616 5613 5610 5607 5604 5600 5597
5773 5772 5771 5771 5770 5769 5768 5768 5767 5766 5765 5764 5763 5762 5761 5761 5760 5759 5757 5756 5756 5755 5754 5754 5753 5753 5752 5751 5751 5750 5749 5748 5747 5746 5745 5744 5743 5742 5740 5738 5737 5735 5732 5731 5729 5726 5723 5719 5716 5715 5715 5713 5710 5707 5705 5702 5698 5693 5690 5686 5682 5679 5675 5671 5668 5664 5659 5654 5648 5644 5641 5641 5643 5641 5637 5633 5629 5624 5619 5615 5613 5609 5606 5603 5600 5597 5594 5591
5770 5769 5769 5768 5768 5767 5766 5765 5764 5763 5762 5761 5760 5759 5758 5757 5757 5755 5754 5753 5753 5752 5751 5751 5750 5750 5749 5749 5748 5747 5746 5745 5744 5743 5742 5741 5740 5738 5737 5735 5733 5731 5729 5727 5725 5723 5719 5716 5712 5711 5711 5708 5706 5703 5700 5698 5693 5689 5685 5681 5677 5674 5669 5664 5660 5657 5654 5647 5643 5639 5631 5633 5638 5635 5630 5627 5622 5617 5613 5609 5606 5604 5600 5597 5594 5591 5588 5584
5767 5767 5766 5765 5765 5764 5763 5762 5761 5760 5759 5758 5756 5755 5754 5754 5753 5752 5751 5750 5749 5749 5748 5748 5747 5746 5746 5745 5745 5743 5742 5742 5741 5740 5739 5738 5737 5735 5733 5731 5729 5727 5725 5723 5721 5719 5715 5711 5709 5708 5706 5703 5700 5698 5696 5692 5688 5683 5679 5675 5672 5668 5664 5659 5653 5650 5647 5640 5638 5633 5622 5625 5634 5629 5623 5621 5616 5611 5607 5603 5601 5598 5595 5591 5588 5584 5580 5577
5765 5764 5763 5762 5762 5761 5760 5759 5758 5757 5755 5754 5753 5752 5751 5750 5750 5749 5748 5747 5746 5746 5745 5744 5744 5743 5743 5742 5741 5740 5739 5738 5738 5737 5735 5735 5734 5732 5730 5728 5726 5723 5721 5719 5717 5715 5711 5707 5704 5703 5702 5699 5696 5694 5691 5687 5682 5677 5673 5670 5666 5662 5658 5653 5647 5643 5639 5635 5634 5626 5614 5618 5626 5621 5615 5614 5609 5604 5600 5597 5595 5591 5588 5585 5580 5577 5573 5568
5761 5761 5760 5759 5758 5758 5756 5755 5754 5753 5752 5750 5749 5748 5747 5746 5746 5745 5744 5743 5743 5742 5742 5741 5741 5740 5740 5739 5738 5737 5735 5734 5734 5733 5732 5731 5730 5728 5726 5724 5722 5720 5718 5715 5713 5710 5707 5703 5700 5697 5695 5692 5690 5689 5686 5682 5676 5671 5667 5663 5659 5656 5652 5647 5642 5636 5631 5631 5630 5618 5609 5614 5616 5610 5608 5606 5600 5597 5593 5589 5587 5584 5580 5577 5572 5569 5565 5560
5758 5757 5757 5756 5755 5754 5753 5752 5751 5750 5748 5747 5746 5745 5744 5743 5742 5742 5741 5740 5739 5739 5739 5738 5737 5737 5736 5735 5734 5733 5732 5731 5730 5729 5728 5727 5725 5724 5722 5720 5718 5716 5713 5711 5709 5706 5703 5700 5697 5694 5690 5685 5683 5682 5679 5677 5672 5666 5662 5658 5653 5651 5646 5640 5636 5630 5624 5624 5621 5611 5605 5608 5606 5601 5601 5598 5592 5588 5585 5582 5579 5576 5571 5568 5564 5560 5556 5552
5755 5754 5753 5752 5751 5751 5750 5749 5748 5747 5745 5744 5743 5742 5741 5740 5739 5738 5738 5737 5736 5736 5736 5735 5734 5734 5733 5731 5730 5729 5728 5727 5726 5725 5724 5722 5721 5719 5718 5716 5714 5711 5709 5706 5703 5701 5698 5695 5693 5690 5687 5682 5679 5677 5673 5670 5666 5661 5656 5652 5648 5645 5640 5635 5629 5624 5619 5614 5610 5608 5604 5599 5597 5596 5593 5589 5584 5580 5577 5574 5571 5567 5563 5559 5555 5551 5547 5543
5752 5751 5750 5749 5748 5748 5747 5746 5745 5744 5743 5742 5741 5740 5738 5737 5736 5735 5735 5734 5733 5733 5732 5732 5731 5730 5729 5727 5726 5726 5725 5724 5723 5721 5720 5718 5717 5715 5713 5712 5709 5706 5704 5701 5698 5695 5692 5690 5688 5685 5682 5678 5674 5671 5668 5664 5659 5655 5650 5646 5643 5639 5634 5629 5623 5618 5614 5604 5598 5603 5601 5590 5590 5592 5585 5579 5576 5572 5569 5566 5562 5558 5554 5550 5546 5542 5538 5534
5749 5748 5747 5747 5746 5745 5744 5743 5742 5741 5740 5739 5738 5737 5735 5734 5733 5732 5732 5731 5730 5729 5729 5728 5727 5726 5725 5724 5723 5723 5722 5721 5718 5717 5715 5714 5713 5711 5709 5707 5704 5702 5699 5696 5693 5689 5685 5684 5682 5679 5677 5673 5667 5664 5662 5657 5653 5649 5643 5640 5638 5633 5627 5622 5617 5613 5608 5597 5592 5595 5592 5583 5585 5586 5578 5572 5568 5564 5560 5557 5552 5549 5545 5541 5537 5534 5529 5525
5746 5745 5745 5744 5743 5742 5741 5739 5739 5738 5737 5736 5735 5734 5733 5731 5730 5729 5728 5728 5727 5726 5725 5725 5723 5722 5721 5720 5719 5719 5718 5716 5714 5713 5712 5710 5708 5707 5705 5702 5700 5697 5694 5691 5687 5683 5679 5677 5676 5672 5670 5668 5663 5659 5655 5650 5646 5642 5637 5635 5632 5627 5621 5615 5611 5608 5601 5592 5588 5587 5582 5579 5581 5578 5569 5565 5561 5557 5553 5549 5545 5541 5536 5533 5529 5524 5520 5516
5743 5742 5742 5741 5740 5739 5738 5736 5736 5735 5734 5733 5732 5731 5730 5729 5727 5726 5725 5724 5723 5723 5722 5721 5720 5719 5718 5717 5716 5715 5713 5711 5710 5709 5707 5705 5704 5702 5699 5697 5695 5692 5689 5685 5681 5677 5672 5670 5668 5664 5660 5660 5657 5652 5648 5644 5639 5634 5632 5631 5626 5620 5615 5610 5605 5601 5593 5586 5584 5579 5573 5574 5575 5569 5562 5559 5554 5549 5545 5541 5537 5532 5527 5523 5520 5515 5510 5505
5740 5739 5738 5738 5737 5736 5734 5733 5732 5732 5731 5730 5729 5728 5727 5725 5724 5723 5722 5720 5720 5719 5718 5717 5716 5715 5714 5713 5712 5711 5709 5707 5706 5704 5703 5701 5699 5697 5694 5692 5689 5686 5683 5679 5675 5672 5667 5662 5660 5656 5651 5651 5650 5645 5641 5637 5631 5628 5627 5625 5619 5612 5608 5604 5599 5594 5587 5580 5576 5571 5567 5567 5566 5561 5556 5552 5547 5542 5537 5533 5529 5524 5518 5512 5508 5505 5501 5495
5737 5736 5735 5734 5734 5732 5731 5730 5729 5728 5727 5726 5725 5724 5723 5722 5721 5720 5719 5717 5716 5715 5714 5714 5713 5712 5711 5709 5708 5707 5705 5703 5702 5700 5698 5696 5694 5692 5689 5686 5684 5680 5677 5673 5669 5666 5661 5656 5653 5647 5642 5642 5641 5636 5633 5629 5624 5622 5621 5616 5610 5606 5601 5595 5592 5588 5582 5575 5569 5565 5562 5560 5556 5553 5549 5544 5539 5534 5529 5524 5519 5515 5510 5504 5497 5493 5490 5486